When you browse on this site, cookies collect data to enhance your experience and personalize the content and advertising you see.
Visit our Privacy Policy to learn more. By continuing to use the site, you agree to this use of cookies and data.

Stündliche Wetter Lubango

Heute, 10 Juli, Freitag

Zeit Temperatur Niederschläge Wind Luftdruck Luftfeuchtigkeit
00:00 +12°C° 0 mm 1 m/S 608 mmHg 35%
01:00 +12°C° 0 mm 1 m/S 607 mmHg 34%
02:00 +12°C° 0 mm 1 m/S 607 mmHg 36%
03:00 +12°C° 0 mm 1 m/S 607 mmHg 38%
04:00 +12°C° 0 mm 1 m/S 607 mmHg 39%
05:00 +12°C° 0 mm 1 m/S 607 mmHg 40%
06:00 +12°C° 0 mm 1 m/S 607 mmHg 41%
07:00 +12°C° 0 mm 1 m/S 608 mmHg 39%
08:00 +15°C° 0 mm 1 m/S 609 mmHg 34%
09:00 +19°C° 0 mm 2 m/S 611 mmHg 29%
10:00 +22°C° 0 mm 3 m/S 612 mmHg 24%
11:00 +24°C° 0 mm 3 m/S 612 mmHg 23%
12:00 +25°C° 0 mm 3 m/S 612 mmHg 23%
13:00 +26°C° 0 mm 3 m/S 611 mmHg 22%
14:00 +25°C° 0 mm 3 m/S 611 mmHg 23%
15:00 +24°C° 0 mm 3 m/S 610 mmHg 25%
16:00 +24°C° 0 mm 3 m/S 610 mmHg 26%
17:00 +20°C° 0 mm 3 m/S 609 mmHg 32%
18:00 +17°C° 0 mm 2 m/S 608 mmHg 38%
19:00 +14°C° 0 mm 1 m/S 607 mmHg 45%
20:00 +13°C° 0 mm 1 m/S 607 mmHg 45%
21:00 +13°C° 0 mm 1 m/S 607 mmHg 45%
22:00 +13°C° 0 mm 1 m/S 608 mmHg 45%
23:00 +13°C° 0 mm 1 m/S 608 mmHg 44%

Morgen, 11 Juli, Samstag

Zeit Temperatur Niederschläge Wind Luftdruck Luftfeuchtigkeit
00:00 +13°C° 0 mm 1 m/S 607 mmHg 44%
01:00 +13°C° 0 mm 1 m/S 607 mmHg 44%
02:00 +13°C° 0 mm 1 m/S 607 mmHg 42%
03:00 +13°C° 0 mm 1 m/S 607 mmHg 41%
04:00 +13°C° 0 mm 1 m/S 607 mmHg 39%
05:00 +13°C° 0 mm 1 m/S 607 mmHg 40%
06:00 +13°C° 0 mm 1 m/S 608 mmHg 40%
07:00 +13°C° 0 mm 1 m/S 608 mmHg 41%
08:00 +16°C° 0 mm 1 m/S 610 mmHg 34%
09:00 +21°C° 0 mm 1 m/S 611 mmHg 27%
10:00 +25°C° 0 mm 1 m/S 613 mmHg 21%
11:00 +26°C° 0 mm 2 m/S 613 mmHg 19%
12:00 +27°C° 0 mm 2 m/S 612 mmHg 18%
13:00 +28°C° 0 mm 3 m/S 612 mmHg 16%
14:00 +28°C° 0 mm 2 m/S 611 mmHg 16%
15:00 +27°C° 0 mm 2 m/S 611 mmHg 17%
16:00 +27°C° 0 mm 2 m/S 610 mmHg 17%
17:00 +23°C° 0 mm 2 m/S 609 mmHg 21%
18:00 +19°C° 0 mm 2 m/S 608 mmHg 25%
19:00 +15°C° 0 mm 2 m/S 607 mmHg 29%
20:00 +15°C° 0 mm 2 m/S 608 mmHg 29%
21:00 +15°C° 0 mm 2 m/S 608 mmHg 29%
22:00 +15°C° 0 mm 2 m/S 608 mmHg 29%
23:00 +15°C° 0 mm 2 m/S 608 mmHg 29%

übermorgen, 12 Juli, Sonntag

Zeit Temperatur Niederschläge Wind Luftdruck Luftfeuchtigkeit
00:00 +15°C° 0 mm 2 m/S 608 mmHg 28%
01:00 +15°C° 0 mm 2 m/S 608 mmHg 28%
02:00 +14°C° 0 mm 2 m/S 608 mmHg 29%
03:00 +14°C° 0 mm 2 m/S 608 mmHg 29%
04:00 +14°C° 0 mm 2 m/S 608 mmHg 30%
05:00 +14°C° 0 mm 2 m/S 608 mmHg 30%
06:00 +14°C° 0 mm 2 m/S 608 mmHg 29%
07:00 +14°C° 0 mm 2 m/S 609 mmHg 29%
08:00 +17°C° 0 mm 3 m/S 610 mmHg 24%
09:00 +20°C° 0 mm 3 m/S 611 mmHg 20%
10:00 +24°C° 0 mm 3 m/S 612 mmHg 16%
11:00 +26°C° 0 mm 3 m/S 612 mmHg 15%
12:00 +27°C° 0 mm 3 m/S 612 mmHg 13%
13:00 +29°C° 0 mm 3 m/S 612 mmHg 12%
14:00 +28°C° 0 mm 3 m/S 612 mmHg 12%
15:00 +28°C° 0 mm 3 m/S 611 mmHg 13%
16:00 +28°C° 0 mm 3 m/S 611 mmHg 13%
17:00 +24°C° 0 mm 2 m/S 610 mmHg 18%
18:00 +20°C° 0 mm 2 m/S 609 mmHg 22%
19:00 +17°C° 0 mm 2 m/S 608 mmHg 27%
20:00 +16°C° 0 mm 2 m/S 609 mmHg 27%
21:00 +16°C° 0 mm 2 m/S 609 mmHg 27%
22:00 +15°C° 0 mm 2 m/S 609 mmHg 27%
23:00 +15°C° 0 mm 2 m/S 609 mmHg 28%

13 Juli, Montag

Zeit Temperatur Niederschläge Wind Luftdruck Luftfeuchtigkeit
00:00 +15°C° 0 mm 2 m/S 609 mmHg 29%
01:00 +14°C° 0 mm 3 m/S 609 mmHg 30%
02:00 +13°C° 0 mm 3 m/S 608 mmHg 30%
03:00 +13°C° 0 mm 3 m/S 608 mmHg 30%
04:00 +13°C° 0 mm 3 m/S 608 mmHg 30%
05:00 +13°C° 0 mm 3 m/S 608 mmHg 30%
06:00 +13°C° 0 mm 3 m/S 608 mmHg 30%
07:00 +12°C° 0 mm 3 m/S 608 mmHg 30%
08:00 +17°C° 0 mm 3 m/S 610 mmHg 26%
09:00 +20°C° 0 mm 3 m/S 611 mmHg 22%
10:00 +25°C° 0 mm 3 m/S 612 mmHg 17%
11:00 +26°C° 0 mm 3 m/S 612 mmHg 16%
12:00 +27°C° 0 mm 3 m/S 612 mmHg 15%
13:00 +28°C° 0 mm 3 m/S 612 mmHg 13%
14:00 +28°C° 0 mm 3 m/S 611 mmHg 13%
15:00 +28°C° 0 mm 3 m/S 611 mmHg 13%
16:00 +27°C° 0 mm 3 m/S 611 mmHg 13%
17:00 +24°C° 0 mm 3 m/S 610 mmHg 18%
18:00 +19°C° 0 mm 2 m/S 609 mmHg 24%
19:00 +16°C° 0 mm 2 m/S 608 mmHg 29%
20:00 +16°C° 0 mm 2 m/S 608 mmHg 30%
21:00 +15°C° 0 mm 2 m/S 608 mmHg 31%
22:00 +15°C° 0 mm 2 m/S 609 mmHg 32%
23:00 +15°C° 0 mm 2 m/S 608 mmHg 31%

14 Juli, Dienstag

Zeit Temperatur Niederschläge Wind Luftdruck Luftfeuchtigkeit
00:00 +14°C° 0 mm 2 m/S 608 mmHg 30%
01:00 +13°C° 0 mm 3 m/S 608 mmHg 28%
02:00 +12°C° 0 mm 3 m/S 608 mmHg 27%
03:00 +12°C° 0 mm 3 m/S 607 mmHg 26%
04:00 +12°C° 0 mm 3 m/S 607 mmHg 25%
05:00 +12°C° 0 mm 3 m/S 607 mmHg 24%
06:00 +11°C° 0 mm 3 m/S 608 mmHg 23%
07:00 +11°C° 0 mm 3 m/S 608 mmHg 22%
08:00 +16°C° 0 mm 3 m/S 609 mmHg 18%
09:00 +19°C° 0 mm 3 m/S 611 mmHg 14%
10:00 +23°C° 0 mm 4 m/S 612 mmHg 10%
11:00 +25°C° 0 mm 3 m/S 612 mmHg 10%
12:00 +26°C° 0 mm 3 m/S 612 mmHg 9%
13:00 +28°C° 0 mm 3 m/S 611 mmHg 9%
14:00 +27°C° 0 mm 3 m/S 611 mmHg 9%
15:00 +27°C° 0 mm 3 m/S 610 mmHg 9%
16:00 +27°C° 0 mm 3 m/S 610 mmHg 10%
17:00 +23°C° 0 mm 2 m/S 609 mmHg 14%
18:00 +19°C° 0 mm 2 m/S 608 mmHg 18%
19:00 +15°C° 0 mm 2 m/S 607 mmHg 22%
20:00 +15°C° 0 mm 2 m/S 607 mmHg 24%
21:00 +14°C° 0 mm 3 m/S 608 mmHg 26%
22:00 +13°C° 0 mm 3 m/S 608 mmHg 28%
23:00 +13°C° 0 mm 3 m/S 608 mmHg 26%

15 Juli, Mittwoch

Zeit Temperatur Niederschläge Wind Luftdruck Luftfeuchtigkeit
00:00 +13°C° 0 mm 3 m/S 608 mmHg 23%
01:00 +12°C° 0 mm 4 m/S 608 mmHg 21%
02:00 +12°C° 0 mm 4 m/S 608 mmHg 19%
03:00 +11°C° 0 mm 4 m/S 607 mmHg 17%
04:00 +10°C° 0 mm 5 m/S 607 mmHg 14%
05:00 +10°C° 0 mm 5 m/S 607 mmHg 15%
06:00 +9°C° 0 mm 5 m/S 608 mmHg 15%
07:00 +9°C° 0 mm 5 m/S 608 mmHg 15%
08:00 +13°C° 0 mm 5 m/S 609 mmHg 14%
09:00 +16°C° 0 mm 6 m/S 611 mmHg 12%
10:00 +20°C° 0 mm 6 m/S 612 mmHg 11%
11:00 +21°C° 0 mm 6 m/S 612 mmHg 10%
12:00 +23°C° 0 mm 5 m/S 612 mmHg 10%
13:00 +26°C° 0 mm 5 m/S 612 mmHg 9%
14:00 +26°C° 0 mm 5 m/S 611 mmHg 8%
15:00 +26°C° 0 mm 4 m/S 611 mmHg 8%
16:00 +26°C° 0 mm 4 m/S 611 mmHg 8%
17:00 +22°C° 0 mm 3 m/S 610 mmHg 10%
18:00 +19°C° 0 mm 3 m/S 609 mmHg 12%
19:00 +14°C° 0 mm 3 m/S 608 mmHg 15%
20:00 +14°C° 0 mm 3 m/S 609 mmHg 15%
21:00 +14°C° 0 mm 3 m/S 609 mmHg 15%
22:00 +13°C° 0 mm 3 m/S 609 mmHg 15%
23:00 +13°C° 0 mm 4 m/S 609 mmHg 16%
Mehr zeigen